Weather History for McAllen, TX

Change the Weather History Date:

Tuesday, May 7, 2013

  Actual Average Record
Temperature  
Mean Temperature 77 °F 80 °F  
Max Temperature 89 °F 90 °F 100 °F (1998)
Min Temperature 65 °F 71 °F 54 °F (1944)
Degree Days  
Heating Degree Days 0 0  
Month to date heating degree days 0 0  
Since 1 July heating degree days 318 579  
Cooling Degree Days 12 15  
Month to date cooling degree days 66 102  
Year to date cooling degree days 856 833  
Growing Degree Days 26 (Base 50)    
Moisture  
Dew Point 64 °F    
Average Humidity 65    
Maximum Humidity 87    
Minimum Humidity 43    
Precipitation  
Precipitation 0.00 in 0.08 in 0.34 in (1942)
Month to date precipitation 0.00 0.49  
Year to date precipitation 2.32 5.02  
Sea Level Pressure  
Sea Level Pressure 29.99 in    
Wind  
Wind Speed 12 mph (ESE)    
Max Wind Speed 22 mph    
Max Gust Speed 28 mph    
Visibility 10 miles    
Events      
T = Trace of Precipitation, MM = Missing Value Source: NWS Daily Summary

Daily Weather History Graph

Daily Weather History Graph

Search for Another Location

Airport:

Trip Planner

Search our weather history database for the weather conditions in past years. The results will help you decide how hot, cold, wet, or windy it might be!

Date:

Astronomy

May. 07, 2013 Rise Set
Actual Time 6:51 AM CDT 8:08 PM CDT
Civil Twilight 6:26 AM CDT 8:32 PM CDT
Nautical Twilight 5:57 AM CDT 9:02 PM CDT
Astronomical Twilight 5:26 AM CDT 9:32 PM CDT
Moon 5:13 AM CDT (5/7) 6:18 PM CDT (5/7)
Length of Visible Light 14h 06m
Length of Day
13h 17m
Waning Crescent, 5% of the Moon is Illuminated
May 7
Waning Crescent
May 9
New
May 17
First Quarter
May 24
Full
May 31
Last Quarter

Hourly Weather History & Observations

Time (CDT) Temp. Heat Index Dew Point Humidity Pressure Visibility Wind Dir Wind Speed Gust Speed Precip Events Conditions
12:53 AM 66.0 °F - 60.1 °F 81% 30.03 in 10.0 mi SSE 4.6 mph - N/A   Clear
1:53 AM 64.9 °F - 61.0 °F 87% 30.01 in 10.0 mi ESE 5.8 mph - N/A   Clear
2:53 AM 66.0 °F - 62.1 °F 87% 29.99 in 10.0 mi ESE 6.9 mph - N/A   Clear
3:53 AM 66.0 °F - 62.1 °F 87% 29.98 in 10.0 mi ESE 5.8 mph - N/A   Clear
4:53 AM 66.0 °F - 62.1 °F 87% 29.97 in 10.0 mi SE 8.1 mph - N/A   Clear
5:49 AM 66.2 °F - 62.6 °F 88% 29.98 in 10.0 mi ESE 6.9 mph - N/A   Mostly Cloudy
5:53 AM 66.9 °F - 62.1 °F 84% 29.98 in 10.0 mi ESE 6.9 mph - N/A   Mostly Cloudy
6:21 AM 66.2 °F - 62.6 °F 88% 29.99 in 10.0 mi ESE 8.1 mph - N/A   Scattered Clouds
6:53 AM 66.9 °F - 63.0 °F 87% 29.99 in 10.0 mi ESE 8.1 mph - N/A   Clear
7:53 AM 69.1 °F - 63.0 °F 81% 30.00 in 10.0 mi ESE 9.2 mph - N/A   Mostly Cloudy
8:21 AM 69.8 °F - 64.4 °F 83% 30.02 in 10.0 mi ESE 9.2 mph - N/A   Scattered Clouds
8:36 AM 69.8 °F - 64.4 °F 83% 30.02 in 10.0 mi ESE 9.2 mph - N/A   Mostly Cloudy
8:53 AM 71.1 °F - 64.0 °F 78% 30.03 in 10.0 mi ESE 6.9 mph - N/A   Mostly Cloudy
9:19 AM 71.6 °F - 64.4 °F 78% 30.04 in 10.0 mi ESE 9.2 mph - N/A   Mostly Cloudy
9:46 AM 73.4 °F - 64.4 °F 73% 30.03 in 10.0 mi SE 16.1 mph - N/A   Mostly Cloudy
9:53 AM 75.9 °F - 64.9 °F 69% 30.02 in 10.0 mi SE 16.1 mph - N/A   Mostly Cloudy
10:10 AM 73.4 °F - 64.4 °F 73% 30.05 in 10.0 mi ESE 12.7 mph - N/A   Overcast
10:53 AM 75.9 °F - 66.0 °F 71% 30.04 in 10.0 mi ESE 9.2 mph - N/A   Overcast
11:53 AM 79.0 °F - 66.9 °F 66% 30.04 in 10.0 mi ESE 10.4 mph - N/A   Overcast
12:24 PM 80.6 °F 82.7 °F 66.2 °F 61% 30.03 in 10.0 mi ESE 10.4 mph - N/A   Overcast
12:53 PM 82.0 °F 84.1 °F 66.0 °F 58% 30.02 in 10.0 mi SE 12.7 mph - N/A   Mostly Cloudy
1:53 PM 84.9 °F 86.6 °F 64.9 °F 51% 29.99 in 10.0 mi ESE 8.1 mph 18.4 mph N/A   Partly Cloudy
2:53 PM 84.9 °F 86.1 °F 64.0 °F 49% 29.97 in 10.0 mi SE 10.4 mph - N/A   Mostly Cloudy
3:53 PM 86.0 °F 87.3 °F 64.0 °F 48% 29.95 in 10.0 mi ESE 12.7 mph 17.3 mph N/A   Mostly Cloudy
4:53 PM 87.1 °F 87.8 °F 63.0 °F 44% 29.93 in 10.0 mi ESE 9.2 mph - N/A   Mostly Cloudy
5:53 PM 86.0 °F 87.3 °F 64.0 °F 48% 29.92 in 10.0 mi ESE 13.8 mph - N/A   Mostly Cloudy
6:53 PM 84.0 °F 85.8 °F 64.9 °F 53% 29.91 in 10.0 mi ESE 18.4 mph - N/A   Clear
7:53 PM 80.1 °F 82.1 °F 66.0 °F 62% 29.93 in 10.0 mi ESE 16.1 mph - N/A   Partly Cloudy
8:46 PM 75.2 °F - 66.2 °F 73% 29.95 in 10.0 mi SE 18.4 mph - N/A   Mostly Cloudy
8:53 PM 75.9 °F - 66.0 °F 71% 29.95 in 10.0 mi SE 17.3 mph - N/A   Mostly Cloudy
9:17 PM 75.2 °F - 66.2 °F 73% 29.96 in 10.0 mi SE 18.4 mph - N/A   Partly Cloudy
9:53 PM 73.9 °F - 66.0 °F 76% 29.98 in 10.0 mi ESE 13.8 mph - N/A   Scattered Clouds
10:02 PM 73.4 °F - 66.2 °F 78% 29.99 in 10.0 mi ESE 15.0 mph - N/A   Mostly Cloudy
10:53 PM 73.9 °F - 66.0 °F 76% 30.00 in 10.0 mi SE 17.3 mph - N/A   Overcast
11:53 PM 73.0 °F - 66.0 °F 79% 30.00 in 10.0 mi ESE 17.3 mph 23.0 mph N/A   Overcast